Date,TemperatureHighF,TemperatureAvgF,TemperatureLowF,DewpointHighF,DewpointAvgF,DewpointLowF,HumidityHigh,HumidityAvg,HumidityLow,PressureMaxIn,PressureMinIn,WindSpeedMaxMPH,WindSpeedAvgMPH,GustSpeedMaxMPH,PrecipitationSumIn
2013-1-2,75,75,75,68,67,66,78,76,74,30.02,29.99,1,0,4,0.01
2013-1-8,62,61,60,61,60,60,97,97,97,29.99,29.97,0,0,0,0.00
2013-1-15,70,70,69,69,68,68,96,96,95,29.93,29.90,0,0,0,0.17
2013-1-16,67,67,67,66,66,66,96,96,96,29.89,29.89,0,0,0,0.00
2013-1-27,79,68,62,66,60,58,88,77,62,30.00,29.91,4,1,0,0.13
2013-1-28,80,67,59,67,60,56,92,80,53,30.01,29.88,3,1,2,0.01
2013-2-1,70,68,67,65,65,65,92,90,86,30.12,30.08,5,2,5,0.41
2013-2-5,68,67,67,66,65,65,94,93,92,30.12,30.12,0,0,0,0.46
2013-2-9,75,75,75,67,67,66,77,77,77,30.08,30.08,4,4,4,0.11
2013-2-12,74,74,74,61,61,61,65,64,64,30.18,30.18,4,4,7,0.00
2013-2-14,63,63,63,59,59,59,89,89,89,30.08,30.07,0,0,0,0.00
2013-2-17,70,70,70,63,63,63,78,78,78,30.10,30.10,4,4,4,0.00
2013-2-22,65,65,65,63,63,63,95,95,95,30.18,30.18,0,0,0,0.00
2013-3-1,68,68,67,59,59,59,75,74,74,30.13,30.13,2,2,4,0.00
2013-3-4,70,69,68,62,62,60,77,76,76,30.22,30.21,0,0,11,0.00
2013-3-8,79,79,79,65,65,65,62,62,62,29.94,29.94,3,3,6,0.00
2013-3-16,66,66,66,63,63,63,91,91,91,29.94,29.94,0,0,0,0.00
2013-3-18,75,75,75,64,64,64,69,69,69,30.00,30.00,2,2,2,0.00
2013-3-27,75,75,75,66,65,65,73,72,71,30.02,30.01,1,1,4,0.00
2013-3-28,74,74,74,65,65,65,74,74,74,30.05,30.05,1,1,3,0.00
2013-4-4,62,62,62,60,60,60,94,94,94,30.07,30.07,0,0,0,0.00
2013-4-12,66,66,66,65,65,65,94,94,94,30.00,30.00,0,0,0,0.00
2013-4-17,68,67,67,67,67,66,98,98,98,30.12,30.11,0,0,0,0.04
2013-4-19,74,70,65,71,68,64,98,94,87,30.14,30.05,3,0,0,0.49
2013-4-20,79,66,61,70,64,60,99,94,71,30.12,30.06,1,0,1,0.01
2013-4-22,84,84,84,72,72,72,67,67,67,30.05,30.05,1,1,1,0.00
2013-4-27,73,73,73,68,68,68,85,85,85,30.08,30.08,0,0,0,0.00
2013-5-3,76,76,76,67,67,67,74,74,74,30.10,30.10,2,2,2,0.00
2013-5-15,73,73,73,71,71,71,93,93,93,30.13,30.13,0,0,0,0.00
2013-5-29,69,69,69,69,69,69,99,99,99,30.05,30.04,0,0,0,0.00
2013-6-10,77,77,77,70,70,70,79,79,79,30.07,30.07,5,5,8,0.00
2013-6-21,78,78,78,72,72,72,82,82,82,29.99,29.99,2,2,2,0.00
2013-7-1,65,65,65,64,64,64,98,98,98,29.96,29.96,0,0,0,0.00
2013-7-14,78,76,75,70,68,68,78,77,74,30.01,30.00,1,0,4,0.01
2013-8-2,80,80,80,72,72,72,76,76,76,30.05,30.05,2,2,2,0.00
2013-9-3,81,81,81,65,65,65,58,58,58,30.02,30.02,4,4,4,0.00
2013-9-9,81,81,81,72,72,72,76,76,76,30.05,30.05,2,2,3,0.00
2013-9-15,79,79,79,72,72,72,80,80,80,29.98,29.98,3,3,10,0.00
2013-9-22,82,82,82,70,70,70,68,68,68,30.01,30.01,3,3,3,0.00
2013-10-2,77,77,77,71,71,71,81,81,81,30.00,30.00,1,1,1,0.00
2013-10-30,69,69,69,69,69,69,98,98,98,30.10,30.10,0,0,0,0.00
2013-11-2,74,74,74,73,73,73,97,97,97,30.08,30.08,0,0,0,0.00
2013-11-3,76,75,75,72,72,72,89,88,88,30.08,30.08,0,0,0,0.00
2013-11-4,76,72,67,73,70,67,99,95,86,30.05,29.95,0,0,0,0.24
2013-11-5,78,70,65,73,69,65,99,97,83,30.02,29.93,1,0,0,0.24
2013-11-6,72,69,67,71,68,67,99,99,99,29.99,29.94,0,0,0,0.07
2013-11-9,74,74,74,71,71,71,91,91,91,29.86,29.86,1,1,1,0.00
2013-11-23,70,70,70,69,69,69,99,99,99,30.00,30.00,0,0,7,0.00
2013-11-25,74,74,74,68,68,68,81,81,81,29.99,29.99,0,0,0,0.00
2013-11-26,77,77,77,71,71,71,83,83,82,30.11,30.11,0,0,0,0.04
2013-12-4,77,74,72,69,68,68,90,83,76,30.01,30.00,0,0,0,0.01
2013-12-21,65,65,65,65,65,65,99,99,99,30.01,30.01,0,0,0,0.00
2013-12-31,76,76,76,72,72,71,86,86,85,29.99,29.99,0,0,0,0.00
2014-1-2,72,72,72,71,71,71,99,99,99,29.91,29.91,0,0,0,0.00